Aérodrome :
LOGIN :

S'inscrire | Disclaimer

   EN    FR    IT 

 










Légende :    VFR   VFR Marginal   IFR   IFR Intensif   IFR Très Intensif
Visi : 
Plafond : 
>= 8 km
>= 3000ft
5 à 8 km
1000 à 3000 ft
1500m à 5 km
500 à 1000 ft
800 à 1500m
200 à 500 ft
< 800m
< 200 ft
Symboles :   Orages  Brouillard  Fortes neiges  Fortes précipitations  Vent > 20 kt
SIGMETs :   Divers  Orages  Givrage  Turbulence  Onde Orograph.  Cendres Volcan.







- Altitude de l'aérodrome : 336 ft
- Code IATA : GCI
- Voir les cartes d'approche


EGJB - Guernsey

DERNIER METAR :
  • 190150Z 17014KT 9999 VCSH BKN006 06/06 Q1008

METARs EXPIRÉS :
  • 190050Z 17015KT 9999 BKN006 06/05 Q1009
  • 182350Z 16014KT 9999 BKN006 06/05 Q1009
  • 182250Z 16018KT 9999 BKN008 06/05 Q1009

TAF TAF EGJB
Valide du 19 à 00h jusqu'au 19 à 09h UTC


182256Z 1900/1909 15018KT 9999 FEW009 BKN012
PROB30
TEMPO 1900/1909 BKN008
TEMPO 1900/1909 SCT012
PROB30
TEMPO 1906/1909 6000 SHRA BKN006 BKN010
BECMG 1907/1909 23015KT
ATIS : +44 1481 238 957
Pas de NOTAMs connus pour ce terrain.



MET'MAP, la Météo Aéronautique d'un coup d'oeil ! - Copyright ORBIFLY Décembre 2007 - Disclaimer

ORBIFLY MET'MAP TEAM :

Programmation & Développement : Alexandra Zaïnal
Conception & Développement : Baudouin d'Aumeries
Co-Programmation & Développement : Marc-Olivier Méhu
Soutien technique & logistique : Manuel Goepfert

Contact : metmap@orbifly.com




SOURCES & CREDITS :

   NOAA